Location: Grzegorzewice
(50.2667°N, 19.9500°E)
Time: 21:41:06
(UTC+00:00)

Daily predictions for brighter satellites

Satellite Brightness Start Highest point End
(mag) Time Altitude Azimuth Time Altitude Azimuth Time Altitude Azimuth
Cosmos 1741 Rocket 4.4 19:27:58 10° SSW 19:33:15 75° WNW 19:38:36 10° NNE
Terra 1.9 19:30:04 10° SSE 19:34:44 70° ENE 19:39:27 10° N
SPOT 5 3.1 19:32:55 10° S 19:37:14 62° WSW 19:41:46 10° NNW
BREEZE-M DEB (TANK) 2.5 19:35:37 10° WSW 19:37:55 58° SSE 19:42:13 10° E
Cosmos 1400 Rocket 4.3 19:40:00 10° SW 19:43:35 37° WNW 19:47:09 10° N
NOSS 0 Rocket 4.5 19:38:43 10° NNW 19:44:50 52° NE 19:50:54 10° SE
Aureole 3 4.0 19:40:30 10° S 19:45:01 70° E 19:50:44 10° NNE
Cosmos 1241 Rocket 4.4 19:40:22 10° SSW 19:46:33 79° SE 19:52:50 10° NE
CZ-4C R/B 3.0 19:45:18 10° SSE 19:48:51 23° ESE 19:53:00 10° ENE
Meteor 1-4 Rocket 2.0 19:45:54 10° S 19:48:53 71° E 19:51:54 10° NNE
COSMOS 2428 2.9 19:43:38 10° NNW 19:49:20 69° ENE 19:55:02 10° SE
ATLAS 2AS CENTAUR R/B 3.7 19:44:15 10° NW 19:50:27 39° WSW 19:56:29 10° S
Cosmos 2360 Rocket 3.5 19:46:54 10° NW 19:52:00 35° WSW 19:57:03 10° S
Okean-O 4.3 19:50:02 10° SSW 19:53:57 31° W 19:57:53 10° NNW
Landsat 4 3.5 19:50:49 10° SSE 19:54:13 71° ENE 19:57:38 10° N
SPOT 3 Rocket 3.6 19:50:23 10° SSE 19:55:32 81° ENE 20:00:45 10° NNW
Cosmos 1953 2.3 19:53:13 10° N 19:57:02 65° ENE 20:00:49 10° SSE
SJ 16-02 1.6 19:53:19 10° SSW 19:57:37 71° WNW 20:01:58 10° NNE
Cosmos 1455 2.1 19:56:36 10° N 20:00:06 64° ENE 20:03:31 10° SSE
Spot 2 Rocket 3.6 19:55:32 10° SSE 20:00:37 81° WSW 20:05:46 10° NNW
USA 245 4.2 19:58:23 10° S 20:02:33 60° W 20:07:47 10° NNW
Okean O Rocket 4.2 20:01:29 10° WSW 20:03:58 15° W 20:06:27 10° NW
Cosmos 2228 Rocket 4.3 20:04:07 10° SSW 20:08:30 45° WNW 20:12:55 10° N
Cosmos 1703 Rocket 3.9 20:04:57 10° S 20:09:16 51° E 20:13:35 10° NNE
Cosmos 1862 Rocket 4.3 20:05:00 10° SSW 20:09:21 57° WNW 20:13:46 10° N
BREEZE-M DEB (TANK) 3.9 20:05:28 10° WSW 20:09:38 78° SSE 20:26:32 10° E
Okean 1-7 3.0 20:07:35 10° S 20:11:54 81° E 20:16:14 10° NNE
GENESIS II 4.3 20:09:32 10° SW 20:13:09 71° NW 20:16:48 10° NE
Cosmos 2208 Rocket 4.0 20:08:04 10° NNW 20:13:18 81° ENE 20:18:02 12° SSE
Cosmos 1315 Rocket 2.8 20:10:43 10° SSW 20:14:43 85° WNW 20:18:44 10° NNE
Cosmos 1242 Rocket 1.8 20:13:39 11° S 20:16:14 59° E 20:18:56 10° NNE
COSMOS 2455 3.2 20:10:51 10° S 20:16:31 45° ESE 20:22:14 10° NE
SeaSat 1 2.6 20:13:07 11° SSE 20:17:49 68° WSW 20:22:44 10° NW
Landsat 5 3.7 20:17:51 10° NNE 20:21:54 53° E 20:25:59 10° S
Cosmos 158 Rocket 4.0 20:17:32 10° NNW 20:22:51 90° WSW 20:27:21 14° SSE
H-2A R/B 4.5 20:21:31 10° ESE 20:24:25 18° ENE 20:27:18 10° NNE
Ariane Rocket 3.6 20:21:01 10° S 20:26:00 54° W 20:31:00 10° NNW
CENTAUR R/B 3.8 20:24:52 13° SE 20:27:45 18° ESE 20:31:57 10° ENE
Cosmos 2333 Rocket 4.2 20:25:14 10° NW 20:29:21 21° W 20:33:29 10° SSW
SL-16 R/B 3.9 20:25:29 10° NNW 20:30:16 27° NE 20:35:02 10° E
Cosmos 1408 3.0 20:30:08 18° SE 20:31:47 31° E 20:34:30 10° NNE
Cosmos 405 Rocket 4.3 20:30:00 10° NNE 20:33:03 23° ENE 20:35:40 12° ESE
Cosmos 2237 Rocket 2.5 20:27:29 10° NNW 20:33:08 63° ENE 20:37:57 14° SE
SL-4 R/B 2.8 20:29:40 10° W 20:33:13 35° SSW 20:35:52 17° SSE
Cosmos 1486 Rocket 4.2 20:28:50 10° S 20:33:50 51° ESE 20:38:53 10° NNE
BlueWalker 3 2.0 20:34:28 10° WSW 20:38:13 77° NNW 20:41:58 10° ENE
Okean 2 4.1 20:35:32 10° SSW 20:39:27 52° WNW 20:43:25 10° N
Cosmos 2227 Rocket 3.5 20:37:03 15° SE 20:40:10 23° ESE 20:44:29 10° NE
USA 234 3.3 20:40:49 10° ENE 20:47:16 57° SE 20:53:41 10° SW
Cosmos 1980 3.7 20:41:46 10° NNW 20:47:29 81° ENE 20:51:59 17° SSE
NOSS 8 (H) 4.2 20:43:48 10° SW 20:47:34 78° SE 20:50:36 10° NE
Cosmos 1709 Rocket 4.2 20:48:51 15° SSE 20:54:04 58° E 21:00:16 10° NNE
Cosmos 2242 Rocket 3.8 20:53:55 17° S 20:57:18 61° E 21:01:49 10° NNE
Cosmos 2297 Rocket 2.4 20:53:47 12° S 20:58:56 55° ESE 21:04:27 10° NE
EXPRESS MD2 2.1 20:57:35 10° W 20:59:52 45° SSW 21:00:19 38° SSE
Cosmos 2219 Rocket 4.3 21:02:36 10° WNW 21:06:21 18° W 21:10:05 10° SW
Cosmos 1782 Rocket 4.1 21:02:45 10° NNW 21:06:59 53° W 21:10:15 16° SSW
USA 281 3.3 21:03:53 16° SE 21:09:16 74° ENE 21:15:52 10° NNW
Cosmos 371 Rocket 3.3 21:06:33 10° SSW 21:11:22 90° ENE 21:16:14 10° NNE
Terra 4.1 21:09:47 10° SW 21:12:50 17° W 21:15:54 10° NW
Cosmos 773 Rocket 4.2 21:08:24 10° NNW 21:13:31 65° WSW 21:17:04 20° S
Cosmos 1300 Rocket 4.0 21:09:51 10° NNW 21:14:04 53° W 21:17:09 18° SSW
Meteor 1-24 Rocket 3.9 21:10:38 19° S 21:14:44 59° E 21:20:09 10° NNE
PSLV R/B 4.0 21:17:09 10° NNE 21:21:05 55° E 21:23:13 25° S
Cosmos 2263 Rocket 3.7 21:19:28 15° SE 21:21:39 19° E 21:25:26 10° ENE
ARIANE 5 R/B 2.6 21:19:54 23° S 21:22:36 79° WSW 21:27:01 10° NNW
Cosmos 1703 3.0 21:21:01 24° S 21:23:10 85° E 21:26:52 10° N
GP-B 3.8 21:19:36 10° N 21:23:52 50° W 21:27:24 14° SSW
Cosmos 2084 Rocket 3.4 21:27:32 10° SW 21:31:50 85° NW 21:35:59 10° NE
COSMOS 2428 4.4 21:28:40 10° NW 21:33:04 23° WSW 21:37:11 11° SSW
NOSS 3-2 (A) 4.1 21:31:19 22° SSE 21:33:32 30° ESE 21:38:39 10° ENE
Cosmos 1378 Rocket 3.8 21:33:42 25° SSE 21:36:00 55° E 21:40:19 10° NNE
CZ-4C R/B 2.4 21:31:51 10° SW 21:36:30 67° NW 21:42:26 10° NE
SJ 16-02 4.4 21:34:58 10° WNW 21:36:49 12° NW 21:38:40 10° NNW
BREEZE-M DEB (TANK) 3.4 21:25:24 10° W 21:38:17 81° S 21:41:53 10° ESE
Cosmos 1674 Rocket 3.9 21:37:08 26° SSE 21:39:18 49° E 21:43:29 10° NNE
Cosmos 1777 Rocket 4.0 21:36:58 15° SSW 21:41:27 86° WNW 21:46:46 10° NNE
BREEZE-M DEB (TANK) 3.1 21:39:50 18° SW 21:41:32 48° SSE 21:46:00 10° E
Cosmos 304 Rocket 4.3 21:38:41 10° SW 21:43:22 58° WNW 21:48:06 10° NNE
Cosmos 1503 Rocket 4.4 21:45:02 10° SW 21:50:15 64° WNW 21:55:31 10° NNE
Cosmos 1825 2.2 21:49:46 34° SSE 21:50:56 52° E 21:54:16 10° NNE
Cosmos 1818 4.0 21:45:41 10° NW 21:51:10 62° NE 21:55:52 14° SE
Cosmos 1538 Rocket 4.1 21:45:58 10° NNW 21:51:12 74° ENE 21:54:33 23° SSE
Cosmos 2151 Rocket 3.5 21:47:46 10° NNW 21:52:11 83° W 21:54:29 28° S
Cosmos 2098 Rocket 4.2 21:48:58 10° NNW 21:55:27 64° W 21:59:29 21° S
Okean 2 Rocket 3.1 21:52:39 10° NNW 21:57:10 81° W 21:59:32 28° S
H-2A R/B 2.7 21:56:48 27° S 21:58:58 61° WSW 22:03:07 10° NNW
BREEZE-M R/B 4.2 21:57:10 24° S 21:59:23 35° SE 22:09:00 10° ENE
MINOTAUR 4 R/B 4.3 21:56:37 10° N 21:59:26 46° WNW 22:00:41 26° SW
Cosmos 1892 2.4 22:01:06 35° S 22:02:29 83° E 22:06:01 10° NNE
COSMOS 2455 3.9 21:56:43 10° WSW 22:02:29 46° NW 22:08:19 10° NNE
SL-12 R/B(2) 4.4 21:56:37 15° SSW 22:03:26 64° ESE 22:13:05 10° NE
ALOS 2 2.6 22:04:51 29° S 22:07:05 80° WSW 22:11:31 10° NNW
Cosmos 332 Rocket 3.9 22:03:50 19° SSW 22:07:22 77° WNW 22:12:18 10° NNE
Cosmos 1328 4.1 22:06:35 31° SSE 22:08:07 52° E 22:11:54 10° NNE
Cosmos 405 Rocket 3.8 22:04:48 10° NNW 22:08:14 33° W 22:09:55 22° SW
Aureole 1 Rocket 3.7 22:07:21 28° SSE 22:08:53 39° ESE 22:13:29 10° NE
Cosmos 2181 Rocket 4.2 22:04:17 10° NNW 22:10:24 64° W 22:14:19 23° S
Cosmos 2074 Rocket 4.0 22:08:12 24° S 22:12:10 76° E 22:18:24 10° NNE
SL-16 R/B 2.2 22:09:17 10° NNW 22:15:00 76° WSW 22:18:25 25° SSE
Meteor 2-5 Rocket 4.5 22:11:13 14° SW 22:16:07 50° WNW 22:21:44 10° N
BlueWalker 3 2.7 22:12:58 10° WNW 22:16:38 52° N 22:20:19 10° E
Cosmos 2237 Rocket 3.6 22:12:11 10° NW 22:16:45 26° WSW 22:19:45 17° SW
CENTAUR R/B 2.5 22:11:56 14° SW 22:17:01 82° SE 22:24:16 10° NE
Cosmos 923 Rocket 4.4 22:13:07 10° NNW 22:18:20 59° ENE 22:22:00 19° SE
Spot 4 4.4 22:17:54 24° SSW 22:20:26 46° W 22:25:07 10° NNW
Cosmos 1943 3.9 22:17:03 10° NNW 22:22:31 49° NE 22:27:39 11° SE
Cosmos 2227 Rocket 2.4 22:18:49 14° SW 22:23:40 70° WNW 22:29:22 10° NNE
Cosmos 1898 Rocket 4.0 22:22:17 26° SSE 22:24:44 45° ESE 22:29:40 10° NE
Cosmos 2082 4.0 22:23:20 26° S 22:26:19 53° ESE 22:31:46 10° NE
Cosmos 2221 Rocket 3.9 22:25:50 24° SSW 22:28:21 60° WNW 22:32:44 10° N
USA 234 3.6 22:23:55 10° ENE 22:30:24 67° NNW 22:36:53 10° WSW
Cosmos 1295 Rocket 4.4 22:26:47 24° S 22:30:39 89° E 22:36:52 10° N
H-2A R/B 2.5 22:27:41 10° NNE 22:31:44 45° E 22:33:24 29° SSE
Okean 1 Rocket 3.6 22:34:43 10° NNW 22:38:56 48° W 22:40:58 27° SSW
Cosmos 2297 Rocket 3.7 22:38:11 10° WSW 22:43:16 33° NW 22:48:22 10° NNE
Cosmos 1461 2.7 22:43:13 34° SSW 22:44:44 64° SE 22:48:36 10° NE
Nadezhda 3 Rocket 4.1 22:41:56 10° NNW 22:48:10 70° W 22:51:56 25° S
Cosmos 990 Rocket 4.4 22:45:54 18° SW 22:49:36 59° WNW 22:54:42 10° NNE
USA 281 4.4 22:50:46 17° SW 22:54:19 27° WSW 22:59:48 10° NW
Cosmos 2219 3.4 22:51:46 18° SW 22:55:58 70° WNW 23:01:36 10° NNE
Cosmos 1680 Rocket 3.5 22:52:45 10° NNW 22:58:00 88° ENE 23:01:20 23° SSE
Cosmos 1606 3.0 22:58:04 10° N 23:01:36 55° ENE 23:03:14 28° SE
Cosmos 1975 Rocket 3.1 22:59:41 30° S 23:01:47 77° E 23:06:13 10° NNE
Cosmos 1025 Rocket 3.4 23:00:15 26° SW 23:02:28 56° WNW 23:06:42 10° N
Cosmos 2112 Rocket 4.0 22:58:10 10° NNW 23:03:24 84° ENE 23:06:53 21° SSE
Cosmos 2263 Rocket 2.2 23:01:07 21° SSW 23:04:53 81° WNW 23:10:30 10° NNE
Orbus 7S? 2.5 23:02:20 10° WNW 23:04:59 86° SW 23:07:39 15° SE
Cosmos 1455 Rocket 3.4 23:04:53 10° NNW 23:09:14 54° W 23:11:17 28° SSW
Cosmos 372 Rocket 4.0 23:10:27 25° SSW 23:13:35 86° WNW 23:18:49 10° NNE
Cosmos 2327 Rocket 4.5 23:13:00 24° SSW 23:16:53 76° WNW 23:23:04 10° N
Cosmos 292 Rocket 4.4 23:17:32 18° SW 23:20:51 49° WNW 23:25:34 10° NNE
Meteor 1-11 4.3 23:17:54 25° S 23:21:30 84° E 23:27:19 10° NNE
Cosmos 494 Rocket 4.5 23:16:35 10° NNW 23:21:47 60° ENE 23:26:41 12° SE
Cosmos 1844 Rocket 3.7 23:18:48 20° SSE 23:21:53 34° ESE 23:26:52 10° NE
NOSS 3-2 (A) 3.7 23:18:38 11° WSW 23:23:48 63° NW 23:30:16 10° NE
CZ-2D R/B 4.3 23:21:58 10° NE 23:25:07 16° E 23:28:14 10° SE
SL-8 Rocket 4.0 23:21:48 23° S 23:25:49 81° E 23:32:04 10° NNE
CZ-4C R/B 4.4 23:21:31 10° WNW 23:26:04 28° NNW 23:31:37 10° NE
Cosmos 858 Rocket 4.5 23:26:28 25° SSW 23:29:36 89° ESE 23:34:51 10° NNE
Cosmos 1900 4.4 23:28:09 23° SW 23:31:22 86° SE 23:36:30 10° NE
Cosmos 1536 Rocket 4.3 23:29:15 21° SSE 23:31:49 44° E 23:36:01 10° NNE
NOSS 3-2 (C) 3.2 23:30:22 21° SW 23:34:08 86° SE 23:40:33 10° NE
Cosmos 2228 3.0 23:32:42 10° N 23:37:02 86° E 23:39:32 24° S
CZ-2C R/B 4.0 23:38:11 10° SE 23:43:04 37° ENE 23:48:05 10° N
Resurs 1-4 Rocket 3.9 23:39:00 10° NE 23:43:11 23° E 23:47:21 10° SE
Cosmos 1607 3.9 23:40:23 10° NW 23:46:50 81° SW 23:53:08 10° SSE
Cosmos 1869 3.7 23:44:12 10° NNW 23:47:43 42° W 23:49:12 27° SW
Cosmos 1437 Rocket 3.3 23:47:14 23° SSE 23:49:15 48° E 23:52:51 10° NNE
Cosmos 1727 Rocket 4.2 23:45:42 10° N 23:52:05 77° E 23:57:36 14° SSE
Cosmos 1937 Rocket 4.1 23:48:31 18° SW 23:52:19 52° WNW 23:57:26 10° NNE
BlueWalker 3 1.7 23:51:15 10° WNW 23:55:00 86° SSW 23:58:45 10° ESE
